Regional Weather Roundup
Issued by NWS

Home | Current Version | Previous Version | Graphics & Text | Print | Product List | Glossary On
Versions: 1 2 3 4 5 6 7 8 9 10 11 12 13 14 15 16 17 18 19 20 21 22 23 24 25 26 27 28 29 30 31 32 33 34 35 36 37 38 39 40 41 42 43 44 45 46 47 48 49 50
466
ASUS44 KLIX 051410
RWRLA
LOUISIANA WEATHER ROUNDUP
NATIONAL WEATHER SERVICE NEW ORLEANS LA
800 AM CST THU MAR 05 2015

NOTE: "FAIR" INDICATES FEW OR NO CLOUDS BELOW 12,000 FEET WITH NO
      SIGNIFICANT WEATHER AND/OR OBSTRUCTIONS TO VISIBILITY.
      SKY/WX - SKY CONDITION AND SIGNIFICANT WEATHER.
      TMP - AIR TEMPERATURE.    DP   - DEWPOINT TEMPERATURE.
      RH  - RELATIVE HUMIDITY.  PRES - PRESSURE.
      HX  - HEAT INDEX.         WCI  - WIND CHILL INDEX.

*  THESE STATIONS ARE NOT NWS OR FAA STATIONS AND ARE NOT UNDER
   NWS QUALITY CONTROL.

LAZ040-048-061>063-065-066-069-051500-
SOUTHEAST LOUISIANA

CITY           SKY/WX    TMP DP  RH WIND       PRES   REMARKS
N.O. AUDUBON     N/A     44  41  89 MISG        N/A
N.O. INTL ARPT CLOUDY    42  37  82 N23G32    30.19R
N.O. LAKEFRONT CLOUDY    46  40  79 N30G38    30.19R
SLIDELL        LGT RAIN  42  39  89 N14G26    30.17R
BATON ROUGE    CLOUDY    36  33  89 N8G18     30.22R WCI  30
BOOTHVILLE     CLOUDY    54  52  93 NW28G44   30.06R
BELLE CHASSE   LGT RAIN  45  39  79 N16G33    30.14R FOG
BOGALUSA*      RAIN      40  35  84 N13G22    30.21R WCI  32
GALLIANO*      CLOUDY    47  45  93 NW26G35   30.14R
NEW ROADS*     DRIZZLE   35  32  88 N16       30.24R WCI  26
GONZALES*      RAIN      38  38  99 N10G21    30.19R WCI  31
HAMMOND*       LGT RAIN  37  36  93 N16       30.21S WCI  28
HOUMA*         CLOUDY    43  39  87 N17G29    30.16R FOG
PORT FOURCHON* CLOUDY    52  50  93 N29G39    30.13R FOG

$$

LAZ041-044-053-054-051500-
SOUTHWEST LOUISIANA

CITY           SKY/WX    TMP DP  RH WIND       PRES   REMARKS
LAKE CHARLES   LGT RAIN  38  35  89 N20G28    30.28R WCI  28
LAFAYETTE      LGT RAIN  37  34  89 N17G26    30.23R WCI  27
PATTERSON      CLOUDY    39  36  87 N17       30.17S WCI  30
SALT POINT       N/A     40  37  89 N14G23    30.13S WCI  32
NEW IBERIA     FLURRIES  38  34  85 N20G28    30.22R WCI  28
CHENAULT AIRPK LGT RAIN  37  36  93 N14G28    30.28R WCI  29

$$

LAZ027-028-051500-
CENTRAL LOUISIANA

CITY           SKY/WX    TMP DP  RH WIND       PRES   REMARKS
FORT POLK      LGTSLEET  32  30  93 N14G26    30.34R FOG     WCI  22
ALEXANDRIA INT FLURRIES  32  29  88 N17G29    30.34R WCI  21
ALEXANDRIA     RAIN      33  29  85 N9G24     30.32R FOG     WCI  25

$$

LAZ001-002-051500-
NORTHWEST LOUISIANA

CITY           SKY/WX    TMP DP  RH WIND       PRES   REMARKS
SHREVEPORT     CLOUDY    28  22  78 N17G29    30.49R WCI  16
BARKSDALE AFB  CLOUDY    27  21  78 N15G23    30.49R WCI  15
DTN SHREVEPORT CLOUDY    27  20  75 N16G28    30.50R WCI  15

$$

LAZ014-016-051500-
NORTHEAST LOUISIANA

CITY           SKY/WX    TMP DP  RH WIND       PRES   REMARKS
MONROE         MIX PCPN  27  22  81 N15G31    30.43R WCI  15
TALLULAH       MIX PCPN  29  24  82 N13G25    30.38R WCI  19

$$




USA.gov is the U.S. government's official web portal to all federal, state and local government web resources and services.